Location: Albuquerque Trailhead
(34.7934°N, 106.3736°W)
Time: 05:55:47
(UTC+00:00)

POLYITAN 1 - Visible Passes

Search period start: 13 July 2024 00:00
Search period end: 23 July 2024 00:00
Orbit: 547 x 567 km, 98.1° (Epoch: 12 July)

Date Brightness Start Highest point End Pass type
(mag) Time Alt. Az. Time Alt. Az. Time Alt. Az.
13 Jul ? 09:52:57 10° NE 09:56:02 21° E 09:58:44 12° SE visible
13 Jul ? 11:27:36 10° NNW 11:30:45 23° WNW 11:33:54 10° WSW visible
14 Jul ? 09:50:57 10° NE 09:53:56 20° E 09:56:36 11° SE visible
14 Jul ? 11:25:26 10° NNW 11:28:40 24° WNW 11:31:55 10° SW visible
15 Jul ? 09:48:57 10° NE 09:51:49 19° E 09:54:26 11° SE visible
15 Jul ? 11:23:15 10° NNW 11:26:35 26° WNW 11:29:54 10° SW visible
16 Jul ? 09:46:57 10° NE 09:49:41 18° E 09:52:15 11° SE visible
16 Jul ? 11:21:04 10° NNW 11:24:28 27° WNW 11:27:52 10° SW visible
17 Jul ? 09:44:55 10° NE 09:47:30 17° E 09:50:03 10° SE visible
17 Jul ? 11:18:51 10° NNW 11:22:19 29° WNW 11:25:48 10° SW visible
18 Jul ? 09:42:54 10° ENE 09:45:19 15° E 09:47:44 10° SE visible
18 Jul ? 11:16:37 10° N 11:20:09 31° WNW 11:23:40 10° SW visible
19 Jul ? 09:40:52 10° ENE 09:43:06 14° E 09:45:20 10° SE visible
19 Jul ? 11:14:22 10° N 11:17:58 33° WNW 11:21:25 11° SW visible
20 Jul ? 09:38:50 10° ENE 09:40:52 13° E 09:42:52 10° SE visible
20 Jul ? 11:12:05 10° N 11:15:45 36° WNW 11:19:08 12° SW visible
21 Jul ? 09:36:50 10° ENE 09:38:35 13° E 09:40:21 10° ESE visible
21 Jul ? 11:09:47 10° N 11:13:31 38° WNW 11:16:49 13° SW visible
22 Jul ? 09:34:52 10° ENE 09:36:18 12° E 09:37:45 10° ESE visible
22 Jul ? 11:07:29 10° N 11:11:16 41° WNW 11:14:30 13° SW visible
